Paso Robles, CA

6:50 PM PDT on October 22, 2017 (GMT -0700)
Paso Robles Municipal

Weather History for KPRB - November, 2013

Change the Weather History Date:

Thursday, November 7, 2013

  Actual Average Record
Temperature  
Mean Temperature 61 °F 55 °F  
Max Temperature 81 °F 71 °F 89 °F (1991)
Min Temperature 40 °F 40 °F 26 °F (1990)
Degree Days  
Heating Degree Days 4 10  
Month to date heating degree days 56 63  
Since 1 July heating degree days 206 233  
Cooling Degree Days 0 0  
Month to date cooling degree days 0 0  
Year to date cooling degree days 1173 926  
Growing Degree Days 11 (Base 50)    
Moisture  
Dew Point 24 °F    
Average Humidity 28    
Maximum Humidity 45    
Minimum Humidity 10    
Precipitation  
Precipitation 0.00 in 0.04 in 0.98 in (1966)
Month to date precipitation 0.00 0.24  
Year to date precipitation 1.48 9.98  
Since 1 July precipitation 0.02  
Sea Level Pressure  
Sea Level Pressure 30.11 in    
Wind  
Wind Speed 2 mph (NW)    
Max Wind Speed 12 mph    
Max Gust Speed -    
Visibility 10 miles    
Events      
T = Trace of Precipitation, MM = Missing Value Source: NWS Daily Summary

Daily Weather History Graph

Daily Weather History Graph

Search for Another Location

Airport or City:

Trip Planner

Search our weather history database for the weather conditions in past years. The results will help you decide how hot, cold, wet, or windy it might be!

Date:

Astronomy

Nov. 07, 2013 Rise Set
Actual Time 6:30 AM PST 5:01 PM PST
Civil Twilight 6:03 AM PST 5:28 PM PST
Nautical Twilight 5:33 AM PST 5:58 PM PST
Astronomical Twilight 5:03 AM PST 6:28 PM PST
Moon 10:42 AM PST (11/7) 9:19 PM PST (11/7)
Length of Visible Light 11h 24m
Length of Day
10h 30m
Waxing Crescent, 24% of the Moon is Illuminated
Nov 7
Waxing Crescent
Nov 9
First Quarter
Nov 17
Full
Nov 25
Last Quarter
Dec 2
New

Hourly Weather History & Observations

Time (PST) Temp. Windchill Dew Point Humidity Pressure Visibility Wind Dir Wind Speed Gust Speed Precip Events Conditions
12:53 AM 46.0 °F - 21.9 °F 39% 30.18 in 10.0 mi Calm Calm - N/A   Clear
1:53 AM 45.0 °F - 23.0 °F 42% 30.17 in 10.0 mi Calm Calm - N/A   Clear
2:53 AM 45.0 °F - 23.0 °F 42% 30.16 in 10.0 mi Calm Calm - N/A   Clear
3:53 AM 42.1 °F - 21.9 °F 45% 30.15 in 10.0 mi Calm Calm - N/A   Clear
4:53 AM 43.0 °F - 21.9 °F 43% 30.15 in 10.0 mi Calm Calm - N/A   Clear
5:53 AM 41.0 °F - 21.0 °F 45% 30.17 in 10.0 mi Calm Calm - N/A   Clear
6:53 AM 42.1 °F - 21.9 °F 45% 30.16 in 10.0 mi Calm Calm - N/A   Clear
7:53 AM 46.0 °F - 23.0 °F 40% 30.18 in 10.0 mi Calm Calm - N/A   Clear
8:53 AM 50.0 °F - 25.0 °F 38% 30.18 in 10.0 mi Calm Calm - N/A   Clear
9:53 AM 57.9 °F - 24.1 °F 27% 30.17 in 10.0 mi Calm Calm - N/A   Clear
10:53 AM 62.1 °F - 24.1 °F 23% 30.16 in 10.0 mi Calm Calm - N/A   Clear
11:53 AM 68.0 °F - 24.1 °F 19% 30.13 in 10.0 mi Calm Calm - N/A   Clear
12:53 PM 73.9 °F - 24.1 °F 16% 30.08 in 10.0 mi Calm Calm - N/A   Clear
1:53 PM 78.1 °F - 23.0 °F 13% 30.06 in 10.0 mi Calm Calm - N/A   Clear
2:53 PM 81.0 °F - 19.9 °F 10% 30.04 in 10.0 mi Calm Calm - N/A   Clear
3:53 PM 80.1 °F - 19.9 °F 11% 30.04 in 10.0 mi Calm Calm - N/A   Clear
4:53 PM 75.9 °F - 21.9 °F 13% 30.03 in 10.0 mi Calm Calm - N/A   Clear
5:53 PM 68.0 °F - 23.0 °F 18% 30.04 in 10.0 mi WNW 8.1 mph - N/A   Clear
6:53 PM 63.0 °F - 23.0 °F 22% 30.06 in 10.0 mi NW 9.2 mph - N/A   Clear
7:53 PM 64.0 °F - 27.0 °F 25% 30.07 in 10.0 mi NW 10.4 mph - N/A   Clear
8:53 PM 55.0 °F - 30.0 °F 38% 30.08 in 10.0 mi NNW 3.5 mph - N/A   Clear
9:53 PM 52.0 °F - 28.0 °F 40% 30.09 in 10.0 mi Calm Calm - N/A   Clear
10:53 PM 48.0 °F - 25.0 °F 41% 30.09 in 10.0 mi Calm Calm - N/A   Clear
11:53 PM 43.0 °F 40.3 °F 27.0 °F 53% 30.08 in 10.0 mi East 4.6 mph - N/A   Clear